Cloud_Cover
0 0 0 0 0 0 0 0 0 0 0 0 0 0 0 0 0 0 0 0 0 0 0 0 0 0 1 2 0 0 1 2 5 5 13 41 51 55 65 97 64 100 99
0 0 0 0 0 0 0 0 0 0 0 0 0 0 0 0 0 0 0 0 0 0 0 4 0 0 0 0 1 0 0 0 0 5 5 89 99 99 90 35 53 11 29
0 0 0 0 0 0 0 0 0 0 0 0 0 0 0 0 0 0 0 0 0 0 0 0 0 4 0 0 4 3 0 0 0 0 0 0 40 99 100 100 100 97 40
0 0 0 0 0 0 0 0 0 0 0 0 0 0 0 0 0 0 0 0 0 0 0 0 0 0 0 0 0 0 0 2 0 0 0 0 0 1 34 45 100 98 100
0 0 0 0 0 0 0 0 0 0 0 0 0 0 0 0 0 0 0 0 0 0 0 0 0 0 0 0 0 0 0 2 0 0 0 0 3 13 9 13 56 100 96
0 0 0 0 0 0 0 0 0 0 0 0 0 0 0 0 0 0 0 0 0 0 0 0 0 0 0 0 0 0 0 0 0 0 0 0 0 3 99 100 85 7 99
0 0 0 0 0 0 0 0 35 4 0 0 0 0 0 0 0 0 0 0 0 0 0 0 5 0 0 5 10 7 5 5 5 5 4 1 0 35 14 51 100 100 100
0 0 0 0 0 0 0 0 0 35 36 0 0 0 0 0 0 0 0 0 0 0 0 0 0 0 0 2 3 5 50 71 80 1 0 0 0 1 72 100 100 100 100
0 0 0 0 1 2 0 2 0 0 20 40 1 0 0 0 0 0 8 0 0 0 0 1 0 0 4 0 0 1 4 13 11 2 4 8 18 16 70 100 100 100 100
0 4 1 5 6 5 2 4 0 0 0 0 28 14 0 0 1 4 17 0 0 6 0 1 3 1 0 11 28 39 47 55 64 59 72 50 100 100 100 100 100 100 100
2 26 25 70 5 5 5 4 0 0 0 0 0 0 1 0 0 19 28 0 0 16 19 17 10 0 9 21 28 25 17 41 100 98 100 100 100 100 99 79 99 100 100
3 0 38 93 11 5 4 1 0 0 0 0 0 0 0 5 54 79 40 75 1 3 10 9 6 0 20 30 42 34 100 100 91 97 100 100 100 100 69 62 43 91 100
73 2 0 5 24 39 83 5 0 2 0 5 54 58 5 49 6 93 99 64 86 36 5 5 5 51 60 99 100 100 100 100 100 100 100 98 66 66 99 100 100 100 100
5 5 3 0 2 63 93 16 1 19 92 1 29 99 47 87 72 27 89 98 97 78 56 24 75 100 100 100 100 100 100 100 100 100 100 93 78 100 100 97 100 100 100
5 5 5 5 6 6 78 54 11 11 21 18 44 14 10 28 16 42 35 56 72 66 56 92 100 100 100 100 100 100 100 100 100 100 100 100 82 90 98 100 100 100 100
4 5 9 4 4 7 89 100 100 99 100 100 100 56 24 79 98 100 100 100 100 100 100 100 100 100 100 100 100 100 100 95 100 84 91 46 99 100 100 78 100 100 100
7 1 5 59 5 28 48 86 100 100 100 100 100 100 100 99 100 100 100 100 100 100 100 100 100 100 100 100 100 100 39 92 74 99 63 65 100 99 34 100 78 63 100
5 89 71 20 10 24 50 50 47 72 89 100 100 100 100 100 100 100 100 100 100 100 100 100 100 100 100 98 65 59 42 97 99 86 100 100 100 85 100 100 100 100 100
10 27 25 29 18 33 42 87 97 100 100 100 100 100 100 100 100 100 100 100 100 100 61 54 60 54 36 34 39 36 30 79 80 20 65 100 100 100 99 100 100 100 62
19 94 88 37 28 17 65 92 86 52 96 100 100 100 100 100 100 100 43 59 100 100 100 80 38 28 29 30 37 66 93 100 94 39 68 100 100 100 100 98 100 66 55
45 23 39 40 22 18 48 99 68 55 72 100 94 100 100 100 69 53 95 100 100 100 100 100 61 100 100 100 100 92 87 97 100 55 65 100 100 100 100 100 100 19 0
89 92 37 23 14 35 50 87 68 45 39 28 59 92 100 100 100 100 100 100 100 100 100 97 65 99 100 100 100 94 44 100 100 79 45 90 100 96 85 88 55 16 22
60 74 29 92 57 66 60 70 99 83 51 41 91 100 100 100 100 100 100 100 100 100 92 10 28 57 40 31 15 15 20 26 18 23 32 34 44 36 27 51 56 30 100
43 100 98 46 48 61 78 71 71 87 100 100 100 99 100 100 100 100 44 28 22 30 44 23 17 5 5 11 17 18 10 8 16 21 10 29 31 58 1 5 5 54 96
31 96 90 100 100 50 98 100 100 100 94 100 92 96 78 100 96 44 59 63 62 96 98 99 99 67 29 5 0 0 10 1 22 73 35 26 19 5 8 30 38 49 88
100 100 94 100 100 100 100 100 100 100 100 100 95 47 69 100 38 97 100 100 100 100 100 69 44 7 5 2 0 0 0 4 8 84 8 5 5 16 39 61 100 100 100